| time (UTC) | temp C | wind direction | speed KPH | gust KPH | rain 1hr cm | rain 24hr cm | rain mn cm | humidity % | barometer mb |
| 20260504190003 | 25 | 212 | 8.0 | 22.5 | 0.00 | 0.00 | 0.00 | 36 | 1012.7 |
| 20260504185503 | 25 | 244 | 9.7 | 22.5 | 0.00 | 0.00 | 0.00 | 36 | 1012.7 |
| 20260504185003 | 25 | 202 | 6.4 | 12.9 | 0.00 | 0.00 | 0.00 | 36 | 1012.7 |
| 20260504184503 | 25 | 273 | 6.4 | 19.3 | 0.00 | 0.00 | 0.00 | 35 | 1012.8 |
| 20260504184003 | 25 | 254 | 8.0 | 19.3 | 0.00 | 0.00 | 0.00 | 36 | 1012.8 |
| 20260504183504 | 26 | 206 | 9.7 | 24.1 | 0.00 | 0.00 | 0.00 | 36 | 1012.9 |
| 20260504183118 | 25 | 233 | 9.7 | 24.1 | 0.00 | 0.00 | 0.00 | 35 | 1012.9 |
| 20260504182503 | 26 | 234 | 8.0 | 24.1 | 0.00 | 0.00 | 0.00 | 35 | 1012.9 |
| 20260504182003 | 25 | 191 | 4.8 | 24.1 | 0.00 | 0.00 | 0.00 | 35 | 1012.8 |
| 20260504181503 | 25 | 232 | 12.9 | 24.1 | 0.00 | 0.00 | 0.00 | 35 | 1013.1 |
| 20260504181003 | 25 | 243 | 9.7 | 24.1 | 0.00 | 0.00 | 0.00 | 35 | 1013.1 |
| 20260504180504 | 25 | 232 | 4.8 | 24.1 | 0.00 | 0.00 | 0.00 | 35 | 1013.3 |
| 20260504180119 | 25 | 225 | 6.4 | 19.3 | 0.00 | 0.00 | 0.00 | 36 | 1013.3 |
| 20260504175503 | 25 | 197 | 6.4 | 17.7 | 0.00 | 0.00 | 0.00 | 38 | 1013.3 |
| 20260504175003 | 25 | 229 | 8.0 | 17.7 | 0.00 | 0.00 | 0.00 | 37 | 1013.3 |
| 20260504174503 | 25 | 215 | 6.4 | 19.3 | 0.00 | 0.00 | 0.00 | 38 | 1013.4 |
| 20260504174003 | 25 | 231 | 9.7 | 29.0 | 0.00 | 0.00 | 0.00 | 37 | 1013.4 |
| 20260504173503 | 24 | 216 | 8.0 | 29.0 | 0.00 | 0.00 | 0.00 | 38 | 1013.6 |
| 20260504173003 | 25 | 239 | 11.3 | 27.4 | 0.00 | 0.00 | 0.00 | 37 | 1013.7 |
| 20260504172503 | 25 | 250 | 8.0 | 19.3 | 0.00 | 0.00 | 0.00 | 39 | 1013.8 |
| 20260504172003 | 25 | 232 | 4.8 | 19.3 | 0.00 | 0.00 | 0.00 | 41 | 1013.7 |
| 20260504171503 | 24 | 269 | 6.4 | 20.9 | 0.00 | 0.00 | 0.00 | 38 | 1013.9 |
| 20260504171003 | 25 | 247 | 8.0 | 20.9 | 0.00 | 0.00 | 0.00 | 39 | 1014.1 |
| 20260504170503 | 25 | 256 | 3.2 | 16.1 | 0.00 | 0.00 | 0.00 | 39 | 1014.1 |
| 20260504151003 | 21 | 234 | 11.3 | 25.7 | 0.00 | 0.00 | 0.00 | 48 | 1015.0 |
| 20260504150503 | 21 | 232 | 8.0 | 24.1 | 0.00 | 0.00 | 0.00 | 48 | 1015.0 |
| 20260504141003 | 20 | 239 | 9.7 | 30.6 | 0.00 | 0.00 | 0.00 | 51 | 1015.5 |
| 20260504140619 | 20 | 245 | 12.9 | 25.7 | 0.00 | 0.00 | 0.00 | 51 | 1015.5 |
| 20260504130503 | 16 | 219 | 1.6 | 6.4 | 0.00 | 0.00 | 0.00 | 64 | 1015.5 |
| 20260504130118 | 16 | 198 | 1.6 | 6.4 | 0.00 | 0.00 | 0.00 | 65 | 1015.6 |
| 20260504110618 | 7 | 0 | 0.0 | 0.0 | 0.00 | 0.00 | 0.00 | 93 | 1014.9 |
| 20260504100503 | 7 | 0 | 0.0 | 0.0 | 0.00 | 0.00 | 0.00 | 92 | 1014.7 |
| 20260504100118 | 7 | 0 | 0.0 | 0.0 | 0.00 | 0.00 | 0.00 | 92 | 1014.7 |
| 20260504082003 | 8 | 0 | 0.0 | 0.0 | 0.00 | 0.00 | 0.00 | 88 | 1014.7 |
| 20260504081503 | 8 | 0 | 0.0 | 0.0 | 0.00 | 0.00 | 0.00 | 88 | 1014.7 |
| 20260504081004 | 8 | 0 | 0.0 | 0.0 | 0.00 | 0.00 | 0.00 | 88 | 1014.8 |
| 20260504080504 | 8 | 0 | 0.0 | 0.0 | 0.00 | 0.00 | 0.00 | 88 | 1014.8 |
| 20260504050504 | 10 | 0 | 0.0 | 0.0 | 0.00 | 0.00 | 0.00 | 83 | 1016.3 |
| 20260504050003 | 10 | 0 | 0.0 | 0.0 | 0.00 | 0.00 | 0.00 | 83 | 1016.4 |
| 20260504045503 | 10 | 0 | 0.0 | 0.0 | 0.00 | 0.00 | 0.00 | 82 | 1016.4 |
| 20260504045004 | 10 | 0 | 0.0 | 0.0 | 0.00 | 0.00 | 0.00 | 82 | 1016.2 |
| 20260504044618 | 10 | 0 | 0.0 | 0.0 | 0.00 | 0.00 | 0.00 | 80 | 1016.3 |
| 20260504044003 | 10 | 0 | 0.0 | 0.0 | 0.00 | 0.00 | 0.00 | 80 | 1016.4 |
| 20260504043503 | 10 | 0 | 0.0 | 0.0 | 0.00 | 0.00 | 0.00 | 80 | 1016.5 |
| 20260504043003 | 10 | 0 | 0.0 | 0.0 | 0.00 | 0.00 | 0.00 | 80 | 1016.6 |
| 20260504042503 | 10 | 0 | 0.0 | 0.0 | 0.00 | 0.00 | 0.00 | 79 | 1016.5 |
| 20260504042003 | 10 | 0 | 0.0 | 0.0 | 0.00 | 0.00 | 0.00 | 79 | 1016.5 |
| 20260504041503 | 10 | 0 | 0.0 | 0.0 | 0.00 | 0.00 | 0.00 | 79 | 1016.6 |
| 20260504041004 | 11 | 0 | 0.0 | 0.0 | 0.00 | 0.00 | 0.00 | 79 | 1016.5 |
| 20260504040618 | 11 | 0 | 0.0 | 0.0 | 0.00 | 0.00 | 0.00 | 78 | 1016.6 |
| 20260504040003 | 11 | 0 | 0.0 | 0.0 | 0.00 | 0.00 | 0.00 | 79 | 1016.5 |
| 20260504035503 | 11 | 0 | 0.0 | 0.0 | 0.00 | 0.00 | 0.00 | 79 | 1016.6 |
| 20260504035003 | 11 | 0 | 0.0 | 0.0 | 0.00 | 0.00 | 0.00 | 79 | 1016.6 |
| 20260504034503 | 11 | 0 | 0.0 | 0.0 | 0.00 | 0.00 | 0.00 | 78 | 1016.5 |
| 20260504034118 | 11 | 0 | 0.0 | 0.0 | 0.00 | 0.00 | 0.00 | 76 | 1016.5 |
| 20260504033503 | 11 | 0 | 0.0 | 0.0 | 0.00 | 0.00 | 0.00 | 74 | 1016.5 |
| 20260504033003 | 11 | 0 | 0.0 | 0.0 | 0.00 | 0.00 | 0.00 | 74 | 1016.6 |
| 20260504032503 | 11 | 0 | 0.0 | 0.0 | 0.00 | 0.00 | 0.00 | 72 | 1016.6 |
| 20260504032004 | 11 | 0 | 0.0 | 0.0 | 0.00 | 0.00 | 0.00 | 72 | 1016.5 |
| 20260504031618 | 11 | 0 | 0.0 | 0.0 | 0.00 | 0.00 | 0.00 | 71 | 1016.6 |
| 20260504031003 | 11 | 0 | 0.0 | 0.0 | 0.00 | 0.00 | 0.00 | 70 | 1016.6 |
| 20260504030618 | 11 | 0 | 0.0 | 0.0 | 0.00 | 0.00 | 0.00 | 69 | 1016.6 |
| 20260504030003 | 12 | 0 | 0.0 | 0.0 | 0.00 | 0.00 | 0.00 | 69 | 1016.6 |
| 20260504025618 | 12 | 0 | 0.0 | 0.0 | 0.00 | 0.00 | 0.00 | 69 | 1016.6 |
| 20260504025003 | 12 | 0 | 0.0 | 0.0 | 0.00 | 0.00 | 0.00 | 66 | 1016.6 |
| 20260504024503 | 12 | 0 | 0.0 | 0.0 | 0.00 | 0.00 | 0.00 | 65 | 1016.6 |
| 20260504024003 | 12 | 0 | 0.0 | 0.0 | 0.00 | 0.00 | 0.00 | 65 | 1016.6 |
| 20260504023618 | 12 | 0 | 0.0 | 0.0 | 0.00 | 0.00 | 0.00 | 65 | 1016.7 |
| 20260504023118 | 12 | 0 | 0.0 | 0.0 | 0.00 | 0.00 | 0.00 | 65 | 1016.8 |
| 20260504022504 | 12 | 0 | 0.0 | 0.0 | 0.00 | 0.00 | 0.00 | 64 | 1016.8 |
| 20260504022003 | 13 | 0 | 0.0 | 0.0 | 0.00 | 0.00 | 0.00 | 62 | 1016.9 |
| 20260504021618 | 13 | 0 | 0.0 | 0.0 | 0.00 | 0.00 | 0.00 | 64 | 1016.7 |
| 20260504021003 | 13 | 0 | 0.0 | 0.0 | 0.00 | 0.00 | 0.00 | 61 | 1016.7 |
| 20260504020618 | 13 | 0 | 0.0 | 0.0 | 0.00 | 0.00 | 0.00 | 61 | 1016.7 |
| 20260504020003 | 13 | 0 | 0.0 | 0.0 | 0.00 | 0.00 | 0.00 | 60 | 1016.6 |
| 20260504015503 | 14 | 0 | 0.0 | 0.0 | 0.00 | 0.00 | 0.00 | 58 | 1016.6 |
| 20260504015004 | 14 | 0 | 0.0 | 0.0 | 0.00 | 0.00 | 0.00 | 58 | 1016.5 |
| 20260504014503 | 14 | 0 | 0.0 | 0.0 | 0.00 | 0.00 | 0.00 | 55 | 1016.4 |
| 20260504014003 | 15 | 0 | 0.0 | 0.0 | 0.00 | 0.00 | 0.00 | 53 | 1016.3 |
| 20260504013503 | 15 | 0 | 0.0 | 0.0 | 0.00 | 0.00 | 0.00 | 52 | 1016.3 |
| 20260504013118 | 15 | 0 | 0.0 | 0.0 | 0.00 | 0.00 | 0.00 | 51 | 1016.1 |
| 20260504012503 | 16 | 0 | 0.0 | 0.0 | 0.00 | 0.00 | 0.00 | 50 | 1016.2 |
| 20260504012118 | 16 | 0 | 0.0 | 0.0 | 0.00 | 0.00 | 0.00 | 48 | 1016.2 |
| 20260504011503 | 16 | 0 | 0.0 | 0.0 | 0.00 | 0.00 | 0.00 | 45 | 1016.0 |
| 20260504011003 | 17 | 0 | 0.0 | 0.0 | 0.00 | 0.00 | 0.00 | 44 | 1016.0 |
| 20260504010504 | 17 | 0 | 0.0 | 0.0 | 0.00 | 0.00 | 0.00 | 43 | 1016.0 |
| 20260504010004 | 17 | 0 | 0.0 | 0.0 | 0.00 | 0.00 | 0.00 | 42 | 1016.0 |
| 20260504005503 | 17 | 0 | 0.0 | 1.6 | 0.00 | 0.00 | 0.00 | 42 | 1015.9 |
| 20260504005118 | 17 | 0 | 0.0 | 1.6 | 0.00 | 0.00 | 0.00 | 41 | 1015.9 |
| 20260504004618 | 18 | 208 | 0.0 | 3.2 | 0.00 | 0.00 | 0.00 | 40 | 1015.9 |